METEOR 2-8 DEB

Satellite information

Favourite Embed

Satellite Type and Status

DEBRISIN ORBIT

Key statistics

Satellite METEOR 2-8 DEB at a glance.

Uptime

15810

Days in orbit

Revolutions

≈ 14.3

Per day

Orbit

LEO

Low Earth Orbit

Inclination

82.5

Latest

Satellite identification and parameters

Extended collection of information and parameters for METEOR 2-8 DEB.

Object identification

Identified? True

Debris? True

Object name: METEOR 2-8 DEB

International designator: 1982-025AL

Object number (NORAD): 36350

Object ID (CCSDS): 36350

Country: COMMONWEALTH OF INDEPENDENT STATES (CIS)

Current information (Y/N): Y

RCS size: SMALL

Orbital parameters

Period: 100.559 minutes

Inclination: 82.515 deg

SMA: 7163.229 km

Apoapsis: 800.334 km

Periapsis: 769.854 km

RAAN: 103.6523 deg

Eccentricy: 0.0021275

Argument of periapsis: 347.897 deg

Mean anomaly: 12.1702 deg

Mean motion: 14.31988391 rev/day

Mean motion (dot): 0.00004739 rev/day2

B* drag term: 0.0017568 1/REarth

Two-line elements (TLE)

Creation date: July 3, 2025, 5:26 p.m.

Reference frame: TEME

Reference center: EARTH

Epoch: July 3, 2025, 1:14 a.m. UTC

TLE line 0: 0 METEOR 2-8 DEB

TLE line 1: 1 36350U 82025AL 25184.05169299 .00004739 00000-0 17568-2 0 9997

TLE line 2: 2 36350 82.5150 103.6523 0021275 347.8970 12.1702 14.31988391622229

Live tracking on map

Real-time ground track for satellite METEOR 2-8 DEB.

In-orbit conjunctions

A list of the most updated potential collisions computed for object METEOR 2-8 DEB.

Target Orbit TCA Probability of collision Miss distance Type
NOAA 16 DEB SSO 2025-02-04 08:29:31 0.0001144348 153.0 (m) DEBRIS
FENGYUN 1C DEB SSO 2024-07-03 23:07:54 0.0001334058 77.0 (m) DEBRIS

Associated space launch

Second generation soviet meteorological satellite

METEOR 2-8 DEB was lifted into orbit during the mission ‘Tsiklon-3 | Meteor-2 8’, on board a Tsiklon-3 space rocket.

The launch took place on March 25, 1982, 9:50 a.m. from 32/1.

For more information about the launch, click the button.

Launch to space Tsiklon-3 | Meteor-2 8
Tsiklon-3 | Meteor-2 8

Agency: N/A

Status: Launch Successful

Launch date: March 25, 1982, 9:50 a.m. UTC

Rocket: Tsiklon-3

Launch pad: 32/1

Location: Plesetsk Cosmodrome, Russian Federation

...

Latest news about this satellite

There are no fresh news available about this satellite. Check back as we update our databases every day.


Newsletter sign-up

Weekly statistics, charts and insights to help you stay on top of the space industry.